PRIMDA Weather Reports


time (UTC)temp
F
wind
direction
speed
knots
gust
knots
rain 1hr
in
rain 24hr
in
rain mn
in
humidity
%
barometer
mb
20260906051605 50 290 4.3 0.0 0.00 0.00 0.00 76
20260906042024 48 280 4.3 0.0 0.00 0.00 0.00 81
20260906031605 48 270 6.1 0.0 0.00 0.00 0.00 81
20260906021605 48 280 6.1 0.0 0.00 0.00 0.00 81
20260906011905 50 280 6.1 0.0 0.00 0.00 0.00 76
20260906001605 52 290 4.3 0.0 0.00 0.00 0.00 71
20260905231605 52 280 7.8 0.0 0.00 0.00 0.00 71
20260905222025 52 280 6.1 0.0 0.00 0.00 0.00 71
20260905211605 54 280 7.8 0.0 0.00 0.00 0.00 66
20260905201605 55 290 6.1 0.0 0.00 0.00 0.00 62
20260905191905 57 290 4.3 0.0 0.00 0.00 0.00 58
20260905181605 59 290 4.3 0.0 0.00 0.00 0.00 54
20260905171628 63 280 12.2 0.0 0.00 0.00 0.00 48
20260905162025 64 280 12.2 20.9 0.00 0.00 0.00 45
20260905151604 66 270 13.9 22.6 0.00 0.00 0.00 48
20260905141604 66 280 12.2 20.9 0.00 0.00 0.00 48
20260905131805 66 270 13.9 25.2 0.00 0.00 0.00 52
20260905121824 68 270 10.4 0.0 0.00 0.00 0.00 56
20260905111606 63 270 15.6 25.2 0.00 0.00 0.00 63
20260905102034 61 270 12.2 0.0 0.00 0.00 0.00 72
20260905091704 55 270 12.2 0.0 0.00 0.00 0.00 87
20260905081608 54 270 12.2 22.6 0.00 0.00 0.00 93
20260905071907 52 270 12.2 0.0 0.00 0.00 0.00 99
20260905061607 50 270 10.4 0.0 0.00 0.00 0.00 99